Weather in Blahodatne

Ukraine / Donetsk Region     47°42′06″N   37°24′56″E
temp.,
°C
wind,
m/s
gust,
m/s
humid.,
%
clouds,
%
prec.,
mm/h
press.,
hPa
HPBL,
m
17 october, sun
sun1700:00+11ene3353100 0.0 101629
03:00+10ne3452100 0.0 101544
06:00+10ne3355100 0.0 101541
09:00+12ne3649100 0.0 1016246
12:00+16nne4437100 0.0 1015703
15:00+17nne4435100 0.0 10141047
18:00+13n354882 0.0 101588
21:00+12n355983 0.0 101695
18 october, mon
mon1800:00+12nnw3560100 0.0 1016141
03:00+12nnw3660100 0.0 1016185
06:00+11nnw3657100 0.0 1016216
09:00+11n456199 0.0 1018337
12:00+15nnw444926 0.0 1017887
15:00+15nw55456 0.0 10161308
18:00+11nw3750100 0.0 1017156
21:00+9nw3857100 0.0 1018227
19 october, tue
tue1900:00+8wnw3662100 0.0 1018141
03:00+7w3762100 0.0 1018243
06:00+5w377067 0.0 1018143
09:00+8w4864100 0.0 1017909
12:00+10wnw4763100 0.2 10171071
15:00+10wnw5765100 0.8 10171510
18:00+7n6979100 1.1 1020923
21:00+5nw511655 1.1 1022334
20 october, wed
wed2000:00+3wnw411665 0.0 1024274
03:00+2wnw49785 0.0 1025204
06:00+1nw49855 0.0 1027231
09:00+3nw58725 0.0 1028565
12:00+7nnw564682 0.0 10281428
15:00+9nw563996 0.0 10271380
18:00+5nw2249100 0.0 102822
21:00+4wsw1152100 0.0 102810
21 october, thu
thu2100:00+3sw345553 0.0 102848
03:00+3sw3356100 0.0 102835
06:00+3ssw3558100 0.0 102780
09:00+7ssw595842 0.0 1027371
12:00+12ssw674233 0.0 1025989
15:00+13ssw783730 0.0 10231117
18:00+9ssw510615 0.0 1023295
21:00+6ssw41182100 0.0 1022288